Location: Augsburg
(48.3836°N, 10.8929°E)
Time: 09:42:56
(UTC+01:00)

ISS - Visible Passes

Search period start: 17 February 2019 00:00
Search period end: 27 February 2019 00:00
Orbit: 403 x 411 km, 51.6° (Epoch: 17 February)

Date Brightness Start Highest point End Pass type
(mag) Time Alt. Az. Time Alt. Az. Time Alt. Az.
21 Feb -0.4 06:42:11 10° SSE 06:43:06 11° SE 06:44:00 10° ESE visible
23 Feb -1.3 06:33:42 10° SSW 06:36:19 22° SE 06:38:57 10° E visible
24 Feb -0.9 05:43:17 10° SSE 05:45:02 14° SE 05:46:48 10° ESE visible
25 Feb -2.7 06:26:30 10° SW 06:29:38 43° SSE 06:32:46 10° ENE visible
26 Feb -2.0 05:35:45 12° SSW 05:38:13 27° SE 05:41:05 10° E visible
